Galesburg, IL

12:29 AM CDT on August 21, 2019 (GMT -0500)
Galesburg Municipal

Weather History for KGBG - May, 2019

Change the Weather History Date:

Wednesday, May 15, 2019

  Actual Average Record
Temperature  
Mean Temperature 64 °F -  
Max Temperature 77 °F 71 °F 87 °F (1960)
Min Temperature 52 °F 51 °F 35 °F (1973)
Growing Degree Days 14 (Base 50)    
Moisture  
Dew Point 52 °F    
Average Humidity 67    
Maximum Humidity 89    
Minimum Humidity 40    
Precipitation  
Precipitation 0.00 in - - ()
Sea Level Pressure  
Sea Level Pressure 29.96 in    
Wind  
Wind Speed 3 mph (East)    
Max Wind Speed 8 mph    
Max Gust Speed -    
Visibility 10 miles    
Events      
Averages and records for this station are not official NWS values.
T = Trace of Precipitation, MM = Missing Value Source: NWS Daily Summary

Daily Weather History Graph

Daily Weather History Graph

Search for Another Location

Airport or City:

Astronomy

May. 15, 2019 Rise Set
Actual Time 5:44 AM CDT 8:12 PM CDT
Civil Twilight 5:13 AM CDT 8:43 PM CDT
Nautical Twilight 4:34 AM CDT 9:22 PM CDT
Astronomical Twilight 3:51 AM CDT 10:06 PM CDT
Moon 4:41 PM CDT (5/15) 4:12 AM CDT (5/15)
Length of Visible Light 15h 30m
Length of Day
14h 28m
Waxing Gibbous, 87% of the Moon is Illuminated
May 15
Waxing Gibbous
May 18
Full
May 26
Last Quarter
Jun 3
New
Jun 10
First Quarter

Hourly Weather History & Observations

Time (CDT) Temp. Dew Point Humidity Pressure Visibility Wind Dir Wind Speed Gust Speed Precip Events Conditions
12:15 AM 55.4 °F 50.4 °F 83% 29.97 in 10.0 mi East 3.5 mph - N/A   Overcast
12:35 AM 55.4 °F 50.4 °F 83% 29.97 in 10.0 mi East 3.5 mph - N/A   Overcast
12:55 AM 55.6 °F 50.2 °F 82% 29.97 in 10.0 mi ESE 4.6 mph - N/A   Overcast
1:15 AM 55.6 °F 50.0 °F 81% 29.96 in 10.0 mi ESE 3.5 mph - N/A   Overcast
1:35 AM 55.4 °F 50.2 °F 83% 29.96 in 10.0 mi Calm Calm - N/A   Overcast
1:55 AM 55.0 °F 50.2 °F 84% 29.95 in 10.0 mi Calm Calm - N/A   Overcast
2:15 AM 55.4 °F 49.6 °F 81% 29.95 in 10.0 mi East 3.5 mph - N/A   Overcast
2:35 AM 54.7 °F 49.6 °F 83% 29.94 in 10.0 mi East 3.5 mph - N/A   Overcast
2:55 AM 54.1 °F 49.1 °F 83% 29.94 in 10.0 mi East 4.6 mph - N/A   Scattered Clouds
3:15 AM 53.6 °F 48.7 °F 84% 29.94 in 10.0 mi ENE 3.5 mph - N/A   Clear
3:35 AM 53.4 °F 49.1 °F 85% 29.94 in 10.0 mi East 4.6 mph - N/A   Clear
3:55 AM 53.2 °F 48.9 °F 85% 29.94 in 10.0 mi East 4.6 mph - N/A   Scattered Clouds
4:15 AM 53.6 °F 49.1 °F 85% 29.93 in 10.0 mi East 4.6 mph - N/A   Scattered Clouds
4:35 AM 52.9 °F 48.9 °F 86% 29.93 in 10.0 mi East 5.8 mph - N/A   Clear
4:55 AM 52.5 °F 48.4 °F 86% 29.94 in 10.0 mi East 4.6 mph - N/A   Clear
5:15 AM 52.3 °F 48.7 °F 88% 29.94 in 10.0 mi East 4.6 mph - N/A   Clear
5:35 AM 52.7 °F 49.1 °F 88% 29.94 in 10.0 mi East 3.5 mph - N/A   Clear
5:55 AM 52.2 °F 48.9 °F 89% 29.94 in 10.0 mi East 4.6 mph - N/A   Clear
6:15 AM 52.7 °F 49.3 °F 88% 29.95 in 10.0 mi East 4.6 mph - N/A   Clear
6:35 AM 53.6 °F 49.5 °F 86% 29.96 in 10.0 mi Calm Calm - N/A   Clear
6:55 AM 54.9 °F 50.4 °F 85% 29.97 in 10.0 mi ESE 3.5 mph - N/A   Clear
7:15 AM 56.1 °F 50.9 °F 83% 29.97 in 10.0 mi ESE 3.5 mph - N/A   Clear
7:35 AM 57.2 °F 51.6 °F 82% 29.98 in 10.0 mi ESE 4.6 mph - N/A   Clear
7:55 AM 58.5 °F 52.3 °F 80% 29.98 in 10.0 mi ESE 3.5 mph - N/A   Clear
8:15 AM 59.9 °F 53.6 °F 80% 29.98 in 10.0 mi East 4.6 mph - N/A   Clear
8:35 AM 61.0 °F 53.8 °F 77% 29.99 in 10.0 mi East 4.6 mph - N/A   Clear
8:55 AM 62.2 °F 54.7 °F 76% 29.99 in 10.0 mi East 4.6 mph - N/A   Clear
9:15 AM 63.5 °F 54.7 °F 73% 29.99 in 10.0 mi East 4.6 mph - N/A   Clear
9:35 AM 65.1 °F 55.4 °F 71% 29.99 in 10.0 mi ESE 4.6 mph - N/A   Clear
9:55 AM 66.4 °F 55.2 °F 67% 29.99 in 10.0 mi ESE 4.6 mph - N/A   Clear
10:15 AM 67.5 °F 54.7 °F 64% 30.00 in 10.0 mi East 5.8 mph - N/A   Clear
10:35 AM 68.9 °F 55.4 °F 62% 30.00 in 10.0 mi NNE 4.6 mph - N/A   Clear
10:55 AM 69.4 °F 54.5 °F 59% 30.00 in 10.0 mi NE 5.8 mph - N/A   Clear
11:15 AM 70.2 °F 54.3 °F 57% 30.00 in 10.0 mi East 5.8 mph - N/A   Clear
11:35 AM 70.7 °F 54.3 °F 56% 29.99 in 10.0 mi ENE 8.1 mph - N/A   Clear
11:55 AM 71.6 °F 54.1 °F 54% 29.99 in 10.0 mi ENE 8.1 mph - N/A   Scattered Clouds
12:15 PM 71.6 °F 53.4 °F 53% 29.99 in 10.0 mi ESE 3.5 mph - N/A   Scattered Clouds
12:35 PM 72.3 °F 54.0 °F 52% 29.99 in 10.0 mi ESE 3.5 mph - N/A   Scattered Clouds
12:55 PM 72.5 °F 53.8 °F 52% 29.98 in 10.0 mi ENE 5.8 mph - N/A   Scattered Clouds
1:15 PM 72.9 °F 51.6 °F 47% 29.98 in 10.0 mi Calm Calm - N/A   Scattered Clouds
1:35 PM 74.5 °F 54.1 °F 49% 29.98 in 10.0 mi NE 3.5 mph - N/A   Clear
1:55 PM 74.1 °F 54.0 °F 49% 29.97 in 10.0 mi East 3.5 mph - N/A   Clear
2:15 PM 74.8 °F 53.8 °F 48% 29.97 in 10.0 mi Calm Calm - N/A   Clear
2:35 PM 75.2 °F 53.8 °F 47% 29.96 in 10.0 mi Calm Calm - N/A   Clear
2:55 PM 75.4 °F 54.3 °F 48% 29.96 in 10.0 mi Calm Calm - N/A   Clear
3:10 PM 75.4 °F 52.5 °F 45% 29.95 in 10.0 mi Calm Calm - N/A   Clear
3:35 PM 75.9 °F 51.3 °F 42% 29.95 in 10.0 mi NNE 4.6 mph - N/A   Clear
3:55 PM 76.5 °F 52.5 °F 43% 29.95 in 10.0 mi Calm Calm - N/A   Clear
4:15 PM 76.5 °F 51.1 °F 41% 29.94 in 10.0 mi Calm Calm - N/A   Clear
4:35 PM 77.0 °F 51.6 °F 41% 29.94 in 10.0 mi Calm Calm - N/A   Clear
4:55 PM 77.0 °F 51.3 °F 40% 29.94 in 10.0 mi Calm Calm - N/A   Clear
5:15 PM 77.0 °F 52.2 °F 42% 29.94 in 10.0 mi Calm Calm - N/A   Clear
5:35 PM 76.8 °F 52.3 °F 42% 29.93 in 10.0 mi Calm Calm - N/A   Clear
5:55 PM 76.3 °F 53.8 °F 45% 29.93 in 10.0 mi SW 3.5 mph - N/A   Clear
6:15 PM 76.6 °F 51.4 °F 41% 29.93 in 10.0 mi East 3.5 mph - N/A   Clear
6:35 PM 75.6 °F 51.8 °F 43% 29.92 in 10.0 mi WSW 3.5 mph - N/A   Clear
6:55 PM 74.7 °F 53.6 °F 48% 29.92 in 10.0 mi SW 5.8 mph - N/A   Clear
7:15 PM 73.2 °F 52.9 °F 49% 29.92 in 10.0 mi WSW 3.5 mph - N/A   Clear
7:35 PM 72.7 °F 52.2 °F 48% 29.93 in 10.0 mi WSW 3.5 mph - N/A   Clear
7:55 PM 71.1 °F 53.8 °F 54% 29.93 in 10.0 mi Calm Calm - N/A   Clear
8:15 PM 69.8 °F 53.1 °F 55% 29.93 in 10.0 mi Calm Calm - N/A   Clear
8:35 PM 65.8 °F 54.0 °F 65% 29.93 in 10.0 mi Calm Calm - N/A   Clear
8:55 PM 64.2 °F 53.8 °F 69% 29.94 in 10.0 mi Calm Calm - N/A   Clear
9:15 PM 63.3 °F 55.0 °F 74% 29.94 in 10.0 mi Calm Calm - N/A   Clear
9:35 PM 61.7 °F 55.2 °F 79% 29.94 in 10.0 mi Calm Calm - N/A   Clear
9:55 PM 61.5 °F 54.0 °F 76% 29.94 in 10.0 mi ESE 3.5 mph - N/A   Clear
10:15 PM 62.1 °F 53.2 °F 73% 29.94 in 10.0 mi East 3.5 mph - N/A   Clear
10:35 PM 60.4 °F 53.6 °F 78% 29.94 in 10.0 mi East 3.5 mph - N/A   Clear
10:55 PM 60.4 °F 53.2 °F 77% 29.94 in 10.0 mi East 3.5 mph - N/A   Clear
11:15 PM 59.4 °F 53.2 °F 80% 29.93 in 10.0 mi Calm Calm - N/A   Clear
11:35 PM 57.7 °F 53.1 °F 84% 29.92 in 10.0 mi East 3.5 mph - N/A   Clear
11:55 PM 59.5 °F 53.2 °F 80% 29.92 in 10.0 mi East 3.5 mph - N/A   Clear